Powrót do katalogu

MKA PN2

RELEK

AktywnyNaukaSSO
NORAD 40070·PAYLOAD·🇷🇺 Russia

Wystrzelony Jul 8, 2014 z Baikonur Cosmodrome

Loading…

Następne Przeloty (najbliższe 24 godziny)

TLE

ŚwieżeSource: Space-Track

Epoka: Sep 14, 2026, 09:10 UTC

1 40070U 14037B   26257.38260130  .00000235  00000-0  58015-4 0  9994
2 40070  98.0810 232.4260 0130644 151.0051 209.8487 14.55732814646069

Śledź MKA PN2 w czasie rzeczywistym z AllMySat

Download on the App Store